Tracking 29065 objects as of 22-Jul-2024
HD Live streaming from Space Station
objects crossing your sky now

COSMOS 1275 DEB

Track COSMOS 1275 DEB now!
10-day predictions


NORAD ID: 13619
Int'l Code: 1981-053GQ
Perigee: 859.7 km
Apogee: 903.9 km
Inclination: 83.0 °
Period: 102.5 minutes
Semi major axis: 7252 km
RCS: 0.0428 m2 (small)
Launch date: June 4, 1981
Source: Commonwealth of Independent States (former USSR) (CIS)
Launch site: PLESETSK MISSILE AND SPACE COMPLEX (PKMTR)

Note: This is SATELLITE DEBRIS
Your satellite tracking list
Your tracking list is empty




NASA's NSSDC Master Catalog

Two Line Element Set (TLE):
1 13619U 81053GM  24203.68908605  .00004126  00000-0  25188-2 0  9999
2 13619  83.0330 284.3769 0030516 246.3559 238.4196 14.05547800125248
Source of the keplerian elements: AFSPC